Weather History for Madison, MN

Change the Weather History Date:

Sunday, December 30, 2012

  Actual Average (KAQP) Record (KAQP)
Temperature  
Mean Temperature 10 °F -  
Max Temperature 21 °F 20 °F 48 °F (2004)
Min Temperature -2 °F 5 °F -9 °F (2008)
Degree Days  
Heating Degree Days 56    
Moisture  
Dew Point 6 °F    
Average Humidity 83    
Maximum Humidity 92    
Minimum Humidity 73    
Precipitation  
Precipitation 0.00 in - - ()
Sea Level Pressure  
Sea Level Pressure 30.00 in    
Wind  
Wind Speed 6 mph (SSE)    
Max Wind Speed 22 mph    
Max Gust Speed 26 mph    
Visibility 10 miles    
Events      
Averages and records for this station are not official NWS values.
T = Trace of Precipitation, MM = Missing Value Source: NWS Daily Summary

Daily Weather History Graph

Daily Weather History Graph

Search for Another Location

Airport:

Trip Planner

Search our weather history database for the weather conditions in past years. The results will help you decide how hot, cold, wet, or windy it might be!

Date:

Astronomy

Dec. 30, 2012 Rise Set
Actual Time 8:02 AM CST 4:52 PM CST
Civil Twilight 7:29 AM CST 5:26 PM CST
Nautical Twilight 6:52 AM CST 6:03 PM CST
Astronomical Twilight 6:16 AM CST 6:38 PM CST
Moon 7:31 PM CST (12/30) 9:06 AM CST (12/30)
Length of Visible Light 9h 56m
Length of Day
8h 49m
Waning Gibbous, 95% of the Moon is Illuminated
Dec 30
Waning Gibbous
Jan 4
Last Quarter
Jan 11
New
Jan 18
First Quarter
Jan 26
Full

Hourly Weather History & Observations

Time (CST) Temp. Windchill Dew Point Humidity Pressure Visibility Wind Dir Wind Speed Gust Speed Precip Events Conditions
12:13 AM -2.2 °F - -5.8 °F 85% 30.12 in 10.0 mi Calm Calm - N/A   Clear
12:34 AM -0.4 °F - -5.8 °F 78% 30.12 in 10.0 mi Calm Calm - N/A   Clear
12:54 AM -0.4 °F -10.4 °F -5.8 °F 78% 30.12 in 10.0 mi South 4.6 mph - N/A   Clear
1:13 AM -2.2 °F -10.4 °F -5.8 °F 85% 30.12 in 10.0 mi South 3.5 mph - N/A   Clear
1:34 AM -0.4 °F -12.0 °F -5.8 °F 78% 30.11 in 10.0 mi South 5.8 mph - N/A   Clear
1:54 AM 1.4 °F -8.3 °F -2.2 °F 85% 30.12 in 10.0 mi South 4.6 mph - N/A   Clear
2:13 AM -0.4 °F -10.4 °F -4.0 °F 85% 30.12 in 10.0 mi SSE 4.6 mph - N/A   Clear
2:34 AM -0.4 °F -8.3 °F -5.8 °F 78% 30.11 in 10.0 mi SSE 3.5 mph - N/A   Clear
2:54 AM 1.4 °F -6.2 °F -2.2 °F 85% 30.10 in 10.0 mi SE 3.5 mph - N/A   Clear
3:13 AM 1.4 °F - -2.2 °F 85% 30.11 in 10.0 mi Calm Calm - N/A   Clear
3:34 AM 3.2 °F -4.2 °F -0.4 °F 85% 30.12 in 10.0 mi SSE 3.5 mph - N/A   Clear
3:54 AM 1.4 °F -6.2 °F -2.2 °F 85% 30.11 in 10.0 mi SSE 3.5 mph - N/A   Clear
4:13 AM 1.4 °F -8.3 °F -2.2 °F 85% 30.10 in 10.0 mi SE 4.6 mph - N/A   Clear
4:34 AM 1.4 °F -6.2 °F -2.2 °F 85% 30.09 in 10.0 mi SSE 3.5 mph - N/A   Clear
4:54 AM 3.2 °F -9.1 °F -0.4 °F 85% 30.09 in 10.0 mi SSE 6.9 mph - N/A   Clear
5:13 AM 3.2 °F -4.2 °F -0.4 °F 85% 30.07 in 10.0 mi SE 3.5 mph - N/A   Clear
5:34 AM 3.2 °F -6.2 °F 1.4 °F 92% 30.07 in 10.0 mi SE 4.6 mph - N/A   Clear
5:54 AM 3.2 °F -6.2 °F -0.4 °F 85% 30.07 in 10.0 mi SSE 4.6 mph - N/A   Clear
6:13 AM 5.0 °F -4.1 °F 1.4 °F 85% 30.06 in 10.0 mi SE 4.6 mph - N/A   Clear
6:34 AM 5.0 °F -5.6 °F 1.4 °F 85% 30.06 in 10.0 mi SE 5.8 mph - N/A   Clear
6:54 AM 3.2 °F -7.8 °F -0.4 °F 85% 30.06 in 10.0 mi SE 5.8 mph - N/A   Clear
7:13 AM 5.0 °F -5.6 °F 1.4 °F 85% 30.06 in 10.0 mi SSE 5.8 mph - N/A   Clear
7:34 AM 5.0 °F -4.1 °F 1.4 °F 85% 30.06 in 10.0 mi SSE 4.6 mph - N/A   Clear
7:54 AM 3.2 °F -11.3 °F 1.4 °F 92% 30.05 in 10.0 mi SSE 9.2 mph - N/A   Clear
8:13 AM 5.0 °F -8.1 °F 1.4 °F 85% 30.04 in 10.0 mi SSE 8.1 mph - N/A   Clear
8:34 AM 5.0 °F -9.1 °F 1.4 °F 85% 30.03 in 10.0 mi SE 9.2 mph - N/A   Clear
8:54 AM 5.0 °F -9.1 °F 1.4 °F 85% 30.02 in 10.0 mi SE 9.2 mph - N/A   Clear
9:13 AM 6.8 °F -4.8 °F 1.4 °F 79% 30.02 in 10.0 mi SE 6.9 mph - N/A   Clear
9:34 AM 8.6 °F -4.7 °F 5.0 °F 85% 30.02 in 10.0 mi SE 9.2 mph - N/A   Clear
9:54 AM 8.6 °F -1.3 °F 5.0 °F 85% 30.01 in 10.0 mi SE 5.8 mph - N/A   Clear
10:13 AM 8.6 °F -2.6 °F 6.8 °F 92% 30.00 in 10.0 mi SE 6.9 mph - N/A   Clear
10:34 AM 8.6 °F -3.7 °F 5.0 °F 85% 29.99 in 10.0 mi SE 8.1 mph - N/A   Clear
10:53 AM 10.4 °F -2.4 °F 6.8 °F 85% 29.98 in 10.0 mi SE 9.2 mph - N/A   Clear
11:14 AM 10.4 °F 4.0 °F 6.8 °F 85% 29.97 in 10.0 mi SE 3.5 mph - N/A   Clear
11:34 AM 10.4 °F 2.2 °F 6.8 °F 85% 29.96 in 10.0 mi SE 4.6 mph - N/A   Clear
11:53 AM 12.2 °F 0.7 °F 8.6 °F 85% 29.93 in 10.0 mi SE 8.1 mph - N/A   Clear
12:14 PM 12.2 °F 1.7 °F 8.6 °F 85% 29.90 in 10.0 mi SE 6.9 mph - N/A   Clear
12:34 PM 14.0 °F 3.9 °F 10.4 °F 86% 29.88 in 10.0 mi ESE 6.9 mph - N/A   Clear
12:53 PM 17.6 °F 8.2 °F 12.2 °F 79% 29.88 in 10.0 mi SE 6.9 mph - N/A   Clear
1:14 PM 17.6 °F 10.7 °F 12.2 °F 79% 29.87 in 10.0 mi SE 4.6 mph - N/A   Clear
1:34 PM 19.4 °F 11.5 °F 14.0 °F 80% 29.86 in 10.0 mi East 5.8 mph - N/A   Clear
1:53 PM 17.6 °F 9.3 °F 12.2 °F 79% 29.85 in 10.0 mi ENE 5.8 mph - N/A   Clear
2:13 PM 17.6 °F 7.3 °F 12.2 °F 79% 29.84 in 10.0 mi East 8.1 mph - N/A   Clear
2:34 PM 17.6 °F 12.3 °F 12.2 °F 79% 29.84 in 10.0 mi East 3.5 mph - N/A   Clear
2:53 PM 19.4 °F 14.3 °F 12.2 °F 74% 29.85 in 10.0 mi SSE 3.5 mph - N/A   Clear
3:13 PM 19.4 °F 11.5 °F 12.2 °F 74% 29.85 in 10.0 mi SSW 5.8 mph - N/A   Clear
3:34 PM 17.6 °F 12.3 °F 12.2 °F 79% 29.85 in 10.0 mi South 3.5 mph - N/A   Clear
3:53 PM 17.6 °F 10.7 °F 12.2 °F 79% 29.88 in 10.0 mi WNW 4.6 mph - N/A   Clear
4:14 PM 17.6 °F 10.7 °F 12.2 °F 79% 29.87 in 10.0 mi West 4.6 mph - N/A   Clear
4:39 PM 10.4 °F 0.8 °F 6.8 °F 85% 29.88 in 10.0 mi WNW 5.8 mph - N/A   Clear
4:58 PM 12.2 °F 0.7 °F 8.6 °F 85% 29.89 in 10.0 mi West 8.1 mph - N/A   Clear
5:14 PM 14.0 °F 1.2 °F 8.6 °F 79% 29.90 in 10.0 mi West 10.4 mph - N/A   Clear
5:34 PM 17.6 °F 5.0 °F 10.4 °F 73% 29.91 in 10.0 mi West 11.5 mph - N/A   Clear
5:53 PM 17.6 °F 4.3 °F 10.4 °F 73% 29.92 in 10.0 mi WNW 12.7 mph - N/A   Clear
6:14 PM 15.8 °F 3.4 °F 10.4 °F 79% 29.93 in 10.0 mi WNW 10.4 mph - N/A   Clear
6:34 PM 14.0 °F 0.5 °F 8.6 °F 79% 29.94 in 10.0 mi WNW 11.5 mph - N/A   Clear
6:53 PM 12.2 °F -1.0 °F 6.8 °F 79% 29.95 in 10.0 mi WNW 10.4 mph - N/A   Clear
7:14 PM 12.2 °F -1.0 °F 6.8 °F 79% 29.96 in 10.0 mi WNW 10.4 mph - N/A   Clear
7:33 PM 10.4 °F -4.8 °F 6.8 °F 85% 29.96 in 10.0 mi NW 12.7 mph - N/A   Clear
7:54 PM 12.2 °F -3.7 °F 6.8 °F 79% 29.97 in 10.0 mi NW 15.0 mph - N/A   Clear
8:13 PM 15.8 °F 0.9 °F 10.4 °F 79% 29.97 in 10.0 mi NW 15.0 mph - N/A   Clear
8:33 PM 17.6 °F 3.2 °F 12.2 °F 79% 29.98 in 10.0 mi NW 15.0 mph 20.7 mph N/A   Mostly Cloudy
8:54 PM 17.6 °F 3.2 °F 14.0 °F 86% 29.99 in 10.0 mi NW 15.0 mph - N/A   Mostly Cloudy
9:13 PM 19.4 °F 3.6 °F 15.8 °F 86% 30.00 in 10.0 mi NW 19.6 mph 24.2 mph N/A   Scattered Clouds
9:33 PM 21.2 °F 6.4 °F 17.6 °F 86% 30.01 in 10.0 mi NNW 18.4 mph - N/A   Overcast
9:54 PM 21.2 °F 7.8 °F 17.6 °F 86% 30.02 in 10.0 mi NNW 15.0 mph - N/A   Overcast
10:13 PM 21.2 °F 5.2 °F 17.6 °F 86% 30.03 in 10.0 mi NNW 21.9 mph 26.5 mph N/A   Overcast
10:33 PM 21.2 °F 5.6 °F 17.6 °F 86% 30.04 in 10.0 mi NNW 20.7 mph 25.3 mph N/A   Overcast
10:54 PM 21.2 °F 6.8 °F 15.8 °F 80% 30.05 in 10.0 mi North 17.3 mph 23.0 mph N/A   Overcast
11:14 PM 19.4 °F 4.5 °F 14.0 °F 80% 30.07 in 10.0 mi NNW 17.3 mph 25.3 mph N/A   Overcast
11:33 PM 19.4 °F 5.5 °F 14.0 °F 80% 30.07 in 10.0 mi North 15.0 mph - N/A   Overcast
11:54 PM 19.4 °F 7.9 °F 14.0 °F 80% 30.09 in 10.0 mi North 10.4 mph - N/A   Overcast